User: anonymous   Login
Location: Unspecified
(0.0000°N, 0.0000°E)
Time: 23:49:51
(UTC+00:00)
Language:

STARLINK-35291 - Orbit

View from above orbital plane
View from above orbital plane
View from above satellite
View from above satellite

Ground track
Ground track

The orbit is defined by the following mean orbital elements,

1 66083U          26145.28447701 +.00000000 +00000-0 +66960-3 0 00007
2 66083  53.1598 249.8294 0001563  93.7938 266.3241 15.30209104    07
Epoch (UTC): 25 May 2026 06:49:38
Eccentricity: 0.0001563
inclination: 53.1598°
perigee height: 474 km
apogee height: 476 km
right ascension of ascending node: 249.8294°
argument of perigee: 93.7938°
revolutions per day: 15.30209104
mean anomaly at epoch: 266.3241°

The dashed part of the orbit path shows where the satellite is in the earth's shadow,  

DLR